Terug naar catalogus

STARLINK-37256

ActiefCommunicatieVLEO
NORAD 68569·PAYLOAD·🇺🇸 United States

Gelanceerd Apr 2, 2026 vanaf Cape Canaveral Space Force Station

Loading…

Volgende Passages (komende 24 uur)

TLE

VersSource: CelesTrak SupGP

Epoch: Sep 15, 2026, 03:52 UTC

1 68569C 26070AD  26258.16159722 -.00046510  00000+0 -13743-2 0  2580
2 68569  53.1592 198.3223 0001342  76.0796 255.5041 15.34408964    11

Volg STARLINK-37256 in realtime met AllMySat

Download on the App Store